{"data":{"norad_id":60472,"intl_designator":"2024-149E","name":"CONNECTA IOT-1","alt_names":[],"object_type":"PAYLOAD","status":"ACTIVE","operator":null,"country":"TURK","launch_date":"2024-08-16","launch_site_code":"AFWTR","launch_vehicle":null,"mission":null,"orbit_class":"UNKNOWN","rcs_meters":null,"size_class":null,"mass_kg":null,"dimensions":null,"purposes":[],"wikipedia_slug":null,"has_3d_model":false,"image_url":null,"decayed_at":null,"tle_current":{"epoch":"2026-09-22T17:41:54.659616Z","epoch_age_seconds":92987,"freshness":"FRESH","line1":"1 60472U 24149E   26265.73743819  .00005515  00000+0  22832-3 0  9997","line2":"2 60472  97.3687 340.3852 0000791 336.7516  23.3686 15.24334642116655","mean_motion":15.24334642,"eccentricity":7.91e-5,"inclination_deg":97.3687,"raan_deg":340.3852,"arg_perigee_deg":336.7516,"mean_anomaly_deg":23.3686,"bstar":0.00022832,"rev_number":11665,"period_min":94.467445685722,"perigee_km":492.2406126739,"apogee_km":493.32759239232,"semimajor_km":6870.9211025331,"source":"CELESTRAK","updated_at":"2026-09-23T09:00:20.652384Z"}}}